Terug naar catalogus

CZ-6A DEB

ActiefSSO
NORAD 54427·DEBRIS·🇨🇳 China

Gelanceerd Nov 11, 2022 vanaf Taiyuan Satellite Launch Center

Loading…

Volgende Passages (komende 24 uur)

TLE

VersSource: Space-Track

Epoch: Sep 14, 2026, 08:53 UTC

1 54427U 22151FB  26257.37062380  .00000596  00000-0  49805-3 0  9993
2 54427  99.0536 222.9612 0173334 279.4468  78.7134 13.85584697193651

Volg CZ-6A DEB in realtime met AllMySat

Download on the App Store